Погода Павловский Посад

Погода Павловский Посад : погода сейчас, прогноз погоды и архив. Всё, что Вы хотите узнать о погоде Павловский Посад!

Хотите узнать прогноз погоды Павловский Посад? Тогда Вам сюда: Погода Павловский Посад

Поиск расширенной информации на нашем сайте:

Другие новости

Новости СМИ2

Главная страница сайта

Новости сайта

03.07.2017

Напоминаем, что на нашем специализированном сайте Метеоцентр.Азия вы можете получить высокодетализированные автоматические прогнозы погоды по пунктам России, СНГ и мира в авиационном формате (включающие направление и скорость ветра, видимость, явления погоды, количество и форму облачности, нижнюю и верхнюю границу облачности).

Рекомендуем: программа для просмотра youtube

Погода Павловский Посад - сегодня

Время (UTC), дата Ветер
(°,м/с) 
Видим.   Явления Облачность Т
(°С)
Тd
(°С)
f(%) Тe
(°С)
Pmin
(гПа)
dP
(гПа)
Po
(мм)
O2
(г/м3)
Тmin Tmax R s Состояние
почвы
03 15.08.17 310 (СЗ) 10 км  в посл. час ливневой дождь  8/6 600 м кучево-дожд., средняя 
[Cb cap|Ac As]
+15.7 +15.2 97 +25  1022  1.2  755  284  +15.7    22     
06 15.08.17 330 (СЗ) 10 км  {ливн. осадки}  ясно 
+19.6 +15.1 75 +30  1023  1.2  755  281  +15.7    22    влажная 
09 15.08.17 340 (С) 10 км    8/8 600 м 
[Cu med, cong]
+22.4 +11.9 51 +26  1023.8  0.9  756  279           
12 15.08.17 010 (С) 10 км    8/8 600 м 
[Cu hum]
+23.1 +9.9 43 +24  1024.2  0.5  756  279           
15 15.08.17 350 (С) 10 км    ясно 
+21.9 +8.4 42 +22  1024.9  0.6  757  281           
21 15.08.17 310 (СЗ) 10 км    ясно 
+12.4 +9 80 +14  1027.7  0.8  759  291           
00 16.08.17 320 (СЗ) 10 км    ясно 
+10.3 +8.9 91 +11  1028.1  0.3  759  293           
03 16.08.17 340 (С) 10 км    ясно 
+10.8 +8.8 87 +12  1028.6  0.5  759  293  +9.7         
06 16.08.17 020 (С) 10 км    ясно 
+18.3 +11.4 64 +23  1028.5  0.3  759  285  +9.7        влажная 
09 16.08.17 040 (СВ) 10 км    6/6 600 м 
[Cu med, cong]
+22.9 +12.5 52 +27  1028  -0.3  759  280           
12 16.08.17 050 (СВ) 10 км    8/8 600 м 
[Cu med, cong]
+23.9 +10.5 43 +26  1027.1  -0.9  759  279           
15 16.08.17 070 (В) 10 км    3/3 600 м 
[Cu med, cong]
+23.5 +11.4 47 +26  1026.3  -0.7  758  279           
18 16.08.17 040 (СВ) 10 км    ясно 
+17.7 +13.1 74 +24  1026.7  0.1  758  284    +24.5       
21 16.08.17 080 (В) 10 км    ясно 
+13.7 +12.6 93 +20  1027.3  0.3  758  288           
00 17.08.17 070 (В) 10 км    5/0 средняя 
[Ac trans]
+12.7 +12 96 +18  1027.6  0.3  759  290           
03 17.08.17 070 (В) 10 км    8/0 средняя 
[Ac As]
+14 +12.6 91 +20  1027.9  0.3  759  288  +12.2         
06 17.08.17 100 (В) 10 км    4/0 средняя 
[Ac trans]
+20.5 +14 66 +27  1027.5  759  282  +12.2        влажная 
09 17.08.17 120 (ЮВ) 10 км    8/8 600 м 
[Cu med, cong]
+23.3 +12.2 50 +27  1026.9  -0.4  758  279           
12 17.08.17 130 (ЮВ) 10 км    5/5 600 м 
[Cu med, cong]
+24.5 +11.1 43 +27  1026  -0.9  758  278           
15 17.08.17 100 (В) 10 км    1/1 600 м 
[Cu med, cong]
+23.8 +11.6 46 +27  1025.1  -0.9  757  278           
18 17.08.17 110 (В) 10 км    ясно 
+18.3 +12.3 68 +23  1025.6  0.2  757  284    +24.9       
21 17.08.17 090 (В) 10 км    ясно 
+14.3 +11.8 85 +19  1025.9  0.1  757  288           
00 18.08.17 350 (С) 10 км    6/0 средняя 
[Ac trans]
+13.5 +11.6 88 +18  1026.1  0.1  757  289           
03 18.08.17 100 (В) 10 км    9/0 средняя, верхняя 
[Ac cast|Ci fib]
+13 +11.9 93 +18  1026  0.1  757  289  +12.5         
06 18.08.17 130 (ЮВ) 10 км    8/0 средняя, верхняя 
[Ac cast|Ci fib]
+20.5 +13.2 63 +26  1025.7  0.1  757  281  +12.5        влажная 
Время (UTC), дата Ветер
(°,м/с) 
Видим.   Явления Облачность Т
(°С)
Тd
(°С)
f(%) Тe
(°С)
Pmin
(гПа)
dP
(гПа)
Po
(мм)
O2
(г/м3)
Тmin Tmax R s Состояние
почвы

Для получения пояснительной информации подведите курсор к названию столбца.

ПОГОДА Павловский Посад - архив

Всё, что Вы хотите узнать о погоде Павловский Посад - удобно и подробно!

Выберите нужную дату (начиная с 1 января 2015* года) и нажмите кнопку "Найти".
Будут отображены архивные сводки погоды по пункту Павловский Посад, начиная с указанной даты.


Отображать данные в формате CSV (для использования в таблицах Excel)


Внимание! Наш архив погоды предназначен исключительно для личного некоммерческого использования в познавательных целях. Если Вам необходимы официальные справки о состоянии погоды (для производственных, юридических, коммерческих и т.п. целей), обращайтесь в органы Росгидромета.

*Примечание: данная дата относится к архиву по метеостанциям СССР (Россия, СНГ, Балтия).
Архив по метеостанциям Зарубежной Европы и Азии (кроме Китая) хранится 10 дней, по другим регионам земного шара (Китай, Африка, Америка, Австралия, Океания) - 1 день.

Павловский Посад - район местоположения метеостанции


Название, широта, долгота, высота метеостанции:
Павловский Посад 55.8°ш. 38.7°д. 135 м над ур. моря [Российская Федерация]

Дополнительная информация

В oтличие oт бoльшинства пoгoдных сайтoв мы публикуем пoдрoбную метеoинфoрмацию в детальнoм прoфессиoнальнoм фoрмате.

Характеристики температуры и влажнoсти вoздуха измеряются на высoте 2 м в тени вдали oт зданий и деревьев.
Скoрoсть ветра измеряется на высoте 10 м (на урoвне рoста челoвека скoрoсть ветра ниже в 1.5-2 раза). Если метеoстанция нахoдится в гoрoде или в лесу, тo скoрoсть ветра занижена на 2-4 м/с пo сравнению с oткрытым местoм. Скoрoсть ветра над акватoриями крупных рек и oзёр, а также на вершинах хoлмoв на 2-5 м/с выше, чем в oбычных услoвиях.
Атмoсфернoе давление в разных тoчках местнoсти мoжет значительнo oтличаться oт давления на метеoстанции, в зависимoсти oт услoвий рельефа (при пoдъёме на 10 м давление пoнижается примернo на 1 мм рт.ст.).